Weather History for KRAS - December, 2012

Change the Weather History Date:

Monday, December 17, 2012

  Actual Average (KCRP) Record (KCRP)
Temperature  
Mean Temperature 68 °F 58 °F  
Max Temperature 77 °F 68 °F 83 °F (1990)
Min Temperature 60 °F 48 °F 28 °F (1932)
Degree Days  
Heating Degree Days 0 9  
Month to date heating degree days 123  
Since 1 July heating degree days 224  
Cooling Degree Days 4 2  
Month to date cooling degree days 34  
Year to date cooling degree days 3509  
Growing Degree Days 18 (Base 50)    
Moisture  
Dew Point 51 °F    
Average Humidity 64    
Maximum Humidity 94    
Minimum Humidity 22    
Precipitation  
Precipitation 0.00 in 0.06 in 2.10 in (1994)
Month to date precipitation 0.94  
Year to date precipitation 30.87  
Snow  
Snow 0.00 in - - ()
Month to date snowfall  
Since 1 July snowfall  
Snow Depth -    
Sea Level Pressure  
Sea Level Pressure 29.92 in    
Wind  
Wind Speed 7 mph (NW)    
Max Wind Speed 15 mph    
Max Gust Speed 21 mph    
Visibility 10 miles    
Events      
T = Trace of Precipitation, MM = Missing Value Source: NWS Daily Summary

Daily Weather History Graph

Daily Weather History Graph

Search for Another Location

Airport or City:

Trip Planner

Search our weather history database for the weather conditions in past years. The results will help you decide how hot, cold, wet, or windy it might be!

Date:

Astronomy

Dec. 17, 2012 Rise Set
Actual Time 7:13 AM CST 5:36 PM CST
Civil Twilight 6:47 AM CST 6:02 PM CST
Nautical Twilight 6:18 AM CST 6:31 PM CST
Astronomical Twilight 5:49 AM CST 7:00 PM CST
Moon 10:43 AM CST (12/17) 10:35 PM CST (12/17)
Length of Visible Light 11h 14m
Length of Day
10h 23m
Waxing Crescent, 25% of the Moon is Illuminated
Dec 17
Waxing Crescent
Dec 19
First Quarter
Dec 28
Full
Jan 4
Last Quarter
Jan 11
New

Hourly Weather History & Observations

Time (CST) Temp. Dew Point Humidity Pressure Visibility Wind Dir Wind Speed Gust Speed Precip Events Conditions
12:15 AM 66.2 °F 59.0 °F 78% 29.85 in 10.0 mi NNW 9.2 mph - N/A   Clear
12:35 AM 66.2 °F 59.0 °F 78% 29.85 in 10.0 mi North 6.9 mph - N/A   Scattered Clouds
12:55 AM 64.4 °F 59.0 °F 83% 29.84 in 10.0 mi NNE 3.5 mph - N/A   Scattered Clouds
1:15 AM 64.4 °F 59.0 °F 83% 29.86 in 10.0 mi NNW 5.8 mph - N/A   Scattered Clouds
1:35 AM 66.2 °F 59.0 °F 78% 29.85 in 10.0 mi North 5.8 mph - N/A   Mostly Cloudy
1:55 AM 66.2 °F 59.0 °F 78% 29.85 in 10.0 mi North 5.8 mph - N/A   Mostly Cloudy
2:15 AM 64.4 °F 59.0 °F 83% 29.87 in 10.0 mi NW 3.5 mph - N/A   Mostly Cloudy
2:35 AM 64.4 °F 59.0 °F 83% 29.86 in 10.0 mi Calm Calm - N/A   Scattered Clouds
2:55 AM 64.4 °F 59.0 °F 83% 29.87 in 10.0 mi SSW 3.5 mph - N/A   Clear
3:15 AM 64.4 °F 60.8 °F 88% 29.88 in 10.0 mi Calm Calm - N/A   Clear
3:35 AM 64.4 °F 60.8 °F 88% 29.87 in 10.0 mi NNW 3.5 mph - N/A   Clear
3:55 AM 64.4 °F 60.8 °F 88% 29.88 in 10.0 mi NNW 4.6 mph - N/A   Clear
4:15 AM 64.4 °F 60.8 °F 88% 29.87 in 10.0 mi NNW 8.1 mph - N/A   Clear
4:35 AM 64.4 °F 55.4 °F 73% 29.88 in 10.0 mi NNW 11.5 mph - N/A   Clear
4:55 AM 64.4 °F 51.8 °F 64% 29.88 in 10.0 mi NNW 15.0 mph 20.7 mph N/A   Clear
5:15 AM 62.6 °F 51.8 °F 68% 29.88 in 10.0 mi NNW 15.0 mph - N/A   Clear
5:35 AM 62.6 °F 53.6 °F 72% 29.91 in 10.0 mi NNW 13.8 mph 18.4 mph N/A   Clear
6:15 AM 62.6 °F 51.8 °F 68% 29.91 in 10.0 mi NNW 15.0 mph - N/A   Clear
6:35 AM 62.6 °F 51.8 °F 68% 29.93 in 10.0 mi NNW 12.7 mph - N/A   Clear
6:55 AM 62.6 °F 50.0 °F 63% 29.93 in 10.0 mi NNW 10.4 mph - N/A   Clear
7:15 AM 62.6 °F 50.0 °F 63% 29.94 in 10.0 mi NNW 8.1 mph - N/A   Clear
8:15 AM 62.6 °F 50.0 °F 63% 29.96 in 10.0 mi NNW 8.1 mph - N/A   Clear
8:35 AM 62.6 °F 44.6 °F 52% 29.97 in 10.0 mi NNW 8.1 mph - N/A   Clear
8:55 AM 62.6 °F 44.6 °F 52% 29.98 in 10.0 mi NNW 9.2 mph - N/A   Clear
9:15 AM 62.6 °F 44.6 °F 52% 29.98 in 10.0 mi NW 8.1 mph - N/A   Clear
9:35 AM 60.8 °F 44.6 °F 55% 29.99 in 10.0 mi NNW 4.6 mph - N/A   Clear
9:55 AM 64.4 °F 42.8 °F 45% 29.99 in 10.0 mi NW 4.6 mph - N/A   Clear
10:15 AM 64.4 °F 42.8 °F 45% 29.99 in 10.0 mi NNW 6.9 mph - N/A   Clear
10:35 AM 68.0 °F 42.8 °F 40% 29.99 in 10.0 mi NNW 6.9 mph - N/A   Clear
10:55 AM 69.8 °F 42.8 °F 38% 29.99 in 10.0 mi NNW 8.1 mph - N/A   Clear
11:15 AM 71.6 °F 42.8 °F 35% 29.98 in 10.0 mi NNW 12.7 mph - N/A   Clear
11:35 AM 71.6 °F 41.0 °F 33% 29.98 in 10.0 mi NNW 10.4 mph - N/A   Clear
11:55 AM 71.6 °F 41.0 °F 33% 29.97 in 10.0 mi NNW 10.4 mph - N/A   Clear
12:15 PM 71.6 °F 41.0 °F 33% 29.96 in 10.0 mi NNW 10.4 mph - N/A   Clear
12:35 PM 73.4 °F 41.0 °F 31% 29.95 in 10.0 mi NNW 10.4 mph - N/A   Clear
12:55 PM 73.4 °F 41.0 °F 31% 29.93 in 10.0 mi NNW 11.5 mph - N/A   Clear
1:15 PM 73.4 °F 39.2 °F 29% 29.92 in 10.0 mi NNW 10.4 mph - N/A   Clear
1:35 PM 75.2 °F 37.4 °F 25% 29.91 in 10.0 mi North 6.9 mph - N/A   Clear
1:55 PM 75.2 °F 39.2 °F 27% 29.91 in 10.0 mi WNW 8.1 mph - N/A   Clear
2:15 PM 77.0 °F 35.6 °F 22% 29.90 in 10.0 mi WNW 10.4 mph - N/A   Clear
2:35 PM 75.2 °F 42.8 °F 31% 29.90 in 10.0 mi West 5.8 mph - N/A   Clear
2:55 PM 75.2 °F 42.8 °F 31% 29.89 in 10.0 mi West 6.9 mph - N/A   Clear
3:15 PM 73.4 °F 41.0 °F 31% 29.88 in 10.0 mi West 6.9 mph - N/A   Clear
3:35 PM 75.2 °F 39.2 °F 27% 29.88 in 10.0 mi West 6.9 mph - N/A   Clear
3:55 PM 73.4 °F 37.4 °F 27% 29.88 in 10.0 mi West 6.9 mph - N/A   Clear
6:35 PM 62.6 °F 48.2 °F 59% 29.91 in 10.0 mi Calm Calm - N/A   Clear
6:55 PM 60.8 °F 53.6 °F 77% 29.91 in 10.0 mi ESE 3.5 mph - N/A   Clear
7:15 PM 62.6 °F 57.2 °F 82% 29.92 in 10.0 mi SE 5.8 mph - N/A   Clear
7:35 PM 64.4 °F 59.0 °F 83% 29.92 in 10.0 mi SSE 5.8 mph - N/A   Clear
7:55 PM 62.6 °F 57.2 °F 82% 29.92 in 10.0 mi South 4.6 mph - N/A   Clear
8:15 PM 62.6 °F 59.0 °F 88% 29.93 in 10.0 mi South 4.6 mph - N/A   Clear
8:35 PM 62.6 °F 59.0 °F 88% 29.93 in 10.0 mi South 4.6 mph - N/A   Clear
8:55 PM 62.6 °F 59.0 °F 88% 29.93 in 10.0 mi South 3.5 mph - N/A   Clear
9:35 PM 60.8 °F 59.0 °F 94% 29.92 in 10.0 mi South 5.8 mph - N/A   Clear
9:55 PM 60.8 °F 59.0 °F 94% 29.93 in 10.0 mi South 4.6 mph - N/A   Clear
10:15 PM 60.8 °F 59.0 °F 94% 29.93 in 10.0 mi South 4.6 mph - N/A   Clear
10:35 PM 60.8 °F 59.0 °F 94% 29.94 in 10.0 mi SSW 4.6 mph - N/A   Clear
10:55 PM 60.8 °F 57.2 °F 88% 29.94 in 10.0 mi South 4.6 mph - N/A   Clear
11:15 PM 60.8 °F 57.2 °F 88% 29.94 in 10.0 mi SSW 4.6 mph - N/A   Clear
11:35 PM 60.8 °F 57.2 °F 88% 29.95 in 10.0 mi South 4.6 mph - N/A   Clear
11:55 PM 60.8 °F 59.0 °F 94% 29.95 in 10.0 mi South 4.6 mph - N/A   Clear